STARLINK-1678 (46538 NORAD) Tracking and Keplerian Element Data

This shows tracking and keplerian element data for the satellite.

Feedback or suggestion? Click here.




ElementValue
Catalog46538
NameSTARLINK-1678
Epoch Orbit402
Epoch Day302.83335648
Epoch Year2020
RAAN332.1587
Inclination53.0009
Eccentricity9.21E-05
Argument of Perigee56.8508
Mean Anonmoly348.6602
Mean Motion15.62706511
Decay Rate0.0002449
L11 46538U 20070G 20302.83335648 .00024490 00000-0 27297-3 0 9991
L22 46538 53.0009 332.1587 0000921 56.8508 348.6602 15.62706511 4027

Live tracking and technical data element details for STARLINK-1678 (NORAD 46538). STARLINK-1678 can be tracked NOW for your location showing map with azimuth and elevation plus other details from your city location.

Track the satellite on the map from your city or location and see movement details for azimuth, elevation, latitude, longitude, range, height, and movement on the map or in text.







IsCatalogInMostPopularTable: catalog: 46538, numindb: 5
Update: records affected: 1



GetName: 46538 STARLINK-1678

Hit Count: updated at: Fri, 30 Oct 2020 01:30:51 GMT